Left ArrowRight Arrow

39.12711, -84.51439

Hourly Observations for June 21, 2024

Temp ( °F °C ) Dew Point ( °F °C ) Humidity (%) Winds ( mph kmh ) Pressure ( in mb ) Visibility ( mi km ) Precip ( " mm )
12:53 am 00:53 Hazy N/A N/A N/A SSW 3 6 30.27 1025 5 8 0.00 0.00
1:53 am 01:53 Hazy N/A N/A N/A Calm 30.27 1025 5 8 0.00 0.00
2:53 am 02:53 Hazy N/A N/A N/A Calm 30.26 1025 4 6 0.00 0.00
3:53 am 03:53 Hazy N/A N/A N/A Calm 30.25 1024 4 6 0.00 0.00
4:53 am 04:53 Clear with Mist and Fog N/A N/A N/A Calm 30.25 1024 3 4 0.00 0.00
5:05 am 05:05 Clear with Mist and Fog N/A N/A N/A Calm 30.26 1025 3 5 0.00 0.00
5:16 am 05:16 Clear with Mist and Fog N/A N/A N/A Calm 30.26 1025 2 3 0.00 0.00
5:31 am 05:31 Clear with Mist and Fog N/A N/A N/A Calm 30.26 1025 3 5 0.00 0.00
5:53 am 05:53 Clear with Mist and Fog N/A N/A N/A Calm 30.27 1025 3 4 0.00 0.00
6:17 am 06:17 Sunny with Mist and Fog N/A N/A N/A Calm 30.27 1025 1 2 0.00 0.00
6:48 am 06:48 Mostly Cloudy with Mist and Fog 70 21 70 21 100 100 Calm 30.24 1024 3 4 0.00 0.00
6:53 am 06:53 Mostly Cloudy with Mist and Fog 70 21.1 70 21.1 100 100 Calm 30.23 1024 3 5 0.00 0.00
7:53 am 07:53 Sunny with Mist and Fog 73 22.8 72 22.2 96 96 Calm 30.24 1024 3 5 0.00 0.00
8:53 am 08:53 Hazy N/A N/A N/A Calm 30.28 1025 4 6 0.00 0.00
9:53 am 09:53 Hazy N/A N/A N/A Calm 30.28 1025 6 10 0.00 0.00
10:53 am 10:53 Sunny 89 31.7 69 20.6 52 52 NNW 5 7 30.22 1023 7 11 0.00 0.00
11:53 am 11:53 Sunny 91 32.8 66 18.9 44 44 VRB 5 7 30.20 1023 8 13 0.00 0.00
12:53 pm 12:53 Mostly Sunny 91 32.8 65 18.3 42 42 VRB 3 6 30.19 1022 8 13 0.00 0.00
1:53 pm 13:53 Partly Cloudy 93 33.9 69 20.6 46 46 E 10 17 30.16 1021 8 13 0.00 0.00
2:36 pm 14:36 Sunny 94 34.4 65 18.3 39 39 NW 12 19 30.14 1021 8 13 0.00 0.00
2:53 pm 14:53 Sunny 92 33.3 67 19.4 44 44 NW 12 19 30.14 1020 8 13 0.00 0.00
3:53 pm 15:53 Sunny 90 32.2 67 19.4 47 47 SW 3 6 30.12 1020 8 13 0.00 0.00
4:53 pm 16:53 Sunny 94 34.4 68 20 43 43 S 7 11 30.09 1019 8 13 0.00 0.00
5:53 pm 17:53 Mostly Sunny 95 35 64 17.8 36 36 WNW 3 6 30.07 1018 8 13 0.00 0.00
6:53 pm 18:53 Sunny 92 33.3 68 20 46 46 SW 6 9 30.09 1019 8 13 0.00 0.00
7:53 pm 19:53 Partly Cloudy 89 31.7 67 19.4 48 48 WSW 7 11 30.09 1019 8 13 0.00 0.00
8:53 pm 20:53 Sunny 84 28.9 72 22.2 67 67 Calm 30.07 1018 7 11 0.00 0.00
9:53 pm 21:53 Clear 79 26.1 71 21.7 77 77 Calm 30.09 1019 8 13 0.00 0.00
10:53 pm 22:53 Clear 76 24.4 69 20.6 79 79 Calm 30.10 1019 7 11 0.00 0.00
11:53 pm 23:53 Clear 75 23.9 68 20 79 79 Calm 30.10 1019 7 11 0.00 0.00

Powered by Vaisala Xweather